This demonstration page uses our WeatherBlox Daily Observations layout. Learn more.

Left ArrowRight Arrow

44.8408, -93.29828

Hourly Observations for October 2, 2022

Temp ( °F °C ) Dew Point ( °F °C ) Humidity (%) Winds ( mph kmh ) Pressure ( in mb ) Visibility ( mi km ) Precip ( " mm )
12:53 am 00:53 Mostly Cloudy 57 13.9 50 10 77 77 E 5 7 30.31 1026 10 16 0.00 0.00
1:53 am 01:53 Cloudy 58 14.4 51 10.6 78 78 ENE 5 7 30.31 1026 10 16 0.00 0.00
2:53 am 02:53 Cloudy 57 13.9 51 10.6 80 80 NE 3 6 30.32 1027 10 16 0.00 0.00
3:53 am 03:53 Mostly Cloudy 57 13.9 52 11.1 83 83 NE 6 9 30.33 1027 10 16 0.00 0.00
4:53 am 04:53 Mostly Cloudy 56 13.3 52 11.1 87 87 ENE 6 9 30.34 1027 10 16 0.00 0.00
5:53 am 05:53 Cloudy 55 12.8 52 11.1 89 89 E 7 11 30.34 1027 10 16 0.00 0.00
6:53 am 06:53 Mostly Cloudy 55 12.8 51 10.6 86 86 ESE 7 11 30.34 1028 10 16 0.00 0.00
7:53 am 07:53 Mostly Cloudy 56 13.3 52 11.1 87 87 SE 3 6 30.36 1028 10 16 0.00 0.00
8:53 am 08:53 Partly Cloudy 57 13.9 51 10.6 80 80 SSE 5 7 30.38 1029 10 16 0.00 0.00
9:53 am 09:53 Mostly Cloudy 61 16.1 50 10 67 67 SSE 9 15 30.38 1029 10 16 0.00 0.00
10:53 am 10:53 Mostly Cloudy 65 18.3 48 8.9 54 54 SE 12 19 30.37 1029 10 16 0.00 0.00
11:53 am 11:53 Partly Cloudy 68 20 47 8.3 47 47 SE 8 13 30.36 1028 10 16 0.00 0.00
12:53 pm 12:53 Partly Cloudy 72 22.2 47 8.3 41 41 SE 13 20 30.34 1027 10 16 0.00 0.00
1:53 pm 13:53 Partly Cloudy 73 22.8 47 8.3 39 39 VRB 7 11 30.32 1027 10 16 0.00 0.00
2:53 pm 14:53 Mostly Cloudy 73 22.8 47 8.3 39 39 SE 9 15 30.29 1026 10 16 0.00 0.00
3:53 pm 15:53 Mostly Cloudy 74 23.3 46 7.8 37 37 ESE 14 22 30.29 1026 10 16 0.00 0.00
4:53 pm 16:53 Mostly Cloudy 72 22.2 47 8.3 41 41 ESE 8 13 30.29 1026 10 16 0.00 0.00
5:53 pm 17:53 Mostly Cloudy 70 21.1 48 8.9 46 46 ESE 14 22 30.29 1026 10 16 0.00 0.00
6:53 pm 18:53 Mostly Cloudy 68 20 49 9.4 50 50 SE 12 19 30.30 1026 10 16 0.00 0.00
7:53 pm 19:53 Mostly Cloudy 66 18.9 51 10.6 59 59 SE 13 20 30.29 1026 10 16 0.00 0.00
8:53 pm 20:53 Mostly Cloudy 65 18.3 50 10 58 58 SE 12 19 30.29 1026 10 16 0.00 0.00
9:53 pm 21:53 Mostly Cloudy 64 17.8 50 10 60 60 SE 9 15 30.30 1026 10 16 0.00 0.00
10:53 pm 22:53 Mostly Cloudy 62 16.7 50 10 65 65 SE 9 15 30.29 1026 10 16 0.00 0.00
11:53 pm 23:53 Mostly Cloudy 62 16.7 50 10 65 65 SSE 10 17 30.28 1025 10 16 0.00 0.00

Powered by AerisWeather